This is the latest recevied weather packets stored in our database for station/object OE-11179. If no packets are shown the sender has not sent any weather packets the latest 10 day(s).
| Time | Temp. | Humidity | Pressure | Rain* | Wind** | Luminosity | Snow |
|---|---|---|---|---|---|---|---|
| 1787664930 | 19.44° C | 66% | - | 0 mm | - | - | - |
| 1787664330 | 20° C | 66% | - | 0 mm | - | - | - |
| 1787663503 | 19.44° C | 66% | - | 0 mm | - | - | - |
| 1787663130 | 19.44° C | 65% | - | 0 mm | - | - | - |
| 1787662529 | 20° C | 65% | - | 0 mm | - | - | - |
| 1787661702 | 19.44° C | 66% | - | 0 mm | - | - | - |
| 1787661329 | 18.89° C | 67% | - | 0 mm | - | - | - |
| 1787660729 | 19.44° C | 66% | - | 0 mm | - | - | - |
| 1787660141 | 19.44° C | 68% | - | 0 mm | - | - | - |
| 1787659528 | 19.44° C | 68% | - | 0 mm | - | - | - |
| 1787658929 | 19.44° C | 72% | - | 0 mm | - | - | - |
| 1787658102 | 19.44° C | 67% | - | 0 mm | - | - | - |
| 1787657728 | 20° C | 71% | - | 0 mm | - | - | - |
| 1787657128 | 19.44° C | 74% | - | 0 mm | - | - | - |
| 1787654502 | 18.89° C | 77% | - | 0 mm | - | - | - |
| 1787654120 | 18.89° C | 74% | - | 0 mm | - | - | - |
| 1787652326 | 18.89° C | 80% | - | 0 mm | - | - | - |
| 1787651728 | 18.33° C | 77% | - | 0 mm | - | - | - |
| 1787650902 | 18.33° C | 80% | - | 0 mm | - | - | - |
| 1787650529 | 18.33° C | 80% | - | 0 mm | - | - | - |
| 1787649929 | 18.33° C | 78% | - | 0 mm | - | - | - |
| 1787649101 | 17.78° C | 87% | - | 0 mm | - | - | - |
| 1787648729 | 17.78° C | 90% | - | 0.25 mm | - | - | - |
| 1787648129 | 17.22° C | 88% | - | 0.25 mm | - | - | - |
| 1787647301 | 17.22° C | 88% | - | 0.25 mm | - | - | - |
* Rain latest hour (hover to see other rain measurements)
** Current wind speed in m/s (hover to see current wind gust speed)